Waarnemingen

Advertentie
Mijn weer
Pertusato, Frankrijk (7770): temperatuur & dauwpunt: 11.02.2019 13:00:00 - 17.02.2019 13:00:00 (CET)Pertusato, Frankrijk (7770): windsnelheid & windstoten: 11.02.2019 13:00:00 - 17.02.2019 13:00:00 (CET)Pertusato, Frankrijk (7770): windrichting: 11.02.2019 13:00:00 - 17.02.2019 13:00:00 (CET)Pertusato, Frankrijk (7770): luchtdruk: 11.02.2019 13:00:00 - 17.02.2019 13:00:00 (CET)Pertusato, Frankrijk (7770): zicht: 11.02.2019 13:00:00 - 17.02.2019 13:00:00 (CET)Pertusato, Frankrijk (7770): neerslag: 11.02.2019 13:00:00 - 17.02.2019 13:00:00 (CET)
Datum & Tijd tt [°C] td [°C] ff [km/u] ff [kn] fx [km/u] fx [kn] dd ppp [hPa] vv [km] rr [mm]
17.02.2019 13:00:00 - - - - - - - - - -
17.02.2019 12:00:00 13,5 9,2 5 3 16 9 WZW 1030,0 - 0,0
17.02.2019 11:00:00 13,2 9,1 7 4 16 9 W 1030,1 - 0,0
17.02.2019 10:00:00 13,3 9,4 10 5 15 8 W 1030,2 - 0,0
17.02.2019 09:00:00 12,2 8,7 11 6 22 12 WNW 1030,3 - 0,0
17.02.2019 08:00:00 9,9 7,1 16 9 23 12 WNW 1030,2 - 0,0
17.02.2019 07:00:00 9,3 7,7 14 7 29 16 WNW 1029,9 20 0,0
17.02.2019 06:00:00 10,4 9,3 23 12 30 16 W 1029,5 - 0,2
17.02.2019 05:00:00 10,4 9,5 18 10 26 14 W 1029,1 - 0,0
17.02.2019 04:00:00 10,4 9,6 15 8 21 12 W 1029,1 20 0,0
17.02.2019 03:00:00 10,0 9,2 14 8 20 11 WNW 1029,5 - 0,0
17.02.2019 02:00:00 10,4 9,5 15 8 23 12 W 1029,8 - 0,0
17.02.2019 01:00:00 10,6 9,5 14 8 31 17 W 1029,9 - 0,2
17.02.2019 00:00:00 11,5 9,9 18 10 29 16 W 1029,6 - 0,0
16.02.2019 23:00:00 11,7 10,1 14 7 38 21 WNW 1029,6 - 0,0
16.02.2019 22:00:00 11,6 9,8 11 6 27 14 WNW 1030,0 - 0,0
16.02.2019 21:00:00 11,5 9,9 8 5 21 11 WNW 1029,9 - 0,0
16.02.2019 20:00:00 11,4 9,3 12 6 17 9 W 1029,9 - 0,0
16.02.2019 19:00:00 11,0 7,3 9 5 13 7 WNW 1030,1 - 0,0
16.02.2019 18:00:00 12,0 5,4 4 2 9 5 WNW 1029,5 - 0,0
16.02.2019 17:00:00 15,5 1,6 4 2 12 6 O 1029,4 - 0,0
16.02.2019 16:00:00 16,1 -2,0 7 4 11 6 NO 1029,7 18 0,0
16.02.2019 15:00:00 16,3 -0,4 4 2 12 6 ZZO 1029,8 - 0,0
16.02.2019 14:00:00 15,8 1,9 7 4 22 12 ONO 1030,1 - 0,0
16.02.2019 13:00:00 14,8 4,5 11 6 27 14 OZO 1030,6 18 0,0
16.02.2019 12:00:00 14,8 5,3 15 8 29 16 O 1030,9 - 0,0
16.02.2019 11:00:00 14,8 5,8 16 9 35 19 O 1030,9 - 0,0
16.02.2019 10:00:00 13,8 5,7 18 10 34 19 ONO 1030,8 - 0,0
16.02.2019 09:00:00 12,4 5,3 20 11 34 18 ONO 1030,5 - 0,0
16.02.2019 08:00:00 10,0 5,4 14 7 26 14 ONO 1030,5 - 0,0
16.02.2019 07:00:00 9,3 4,7 16 9 28 15 ONO 1029,6 18 0,0
16.02.2019 06:00:00 9,7 5,1 18 10 28 15 ONO 1029,2 - 0,0
16.02.2019 05:00:00 9,9 5,3 19 10 32 17 ONO 1028,9 - 0,0
16.02.2019 04:00:00 10,3 5,7 16 9 37 20 ONO 1028,8 18 0,0
16.02.2019 03:00:00 10,7 5,7 23 12 42 23 ONO 1029,1 - 0,0
16.02.2019 02:00:00 10,2 6,9 22 12 34 19 ONO 1029,1 - 0,0
16.02.2019 01:00:00 9,2 7,5 17 9 25 14 NO 1029,3 18 0,0
16.02.2019 00:00:00 8,7 7,6 10 5 14 8 NO 1029,3 - 0,0
15.02.2019 23:00:00 8,9 7,8 2 1 13 7 NNO 1029,4 - 0,0
15.02.2019 22:00:00 10,6 9,5 8 4 18 10 WZW 1028,9 - 0,2
15.02.2019 21:00:00 10,9 9,7 10 5 16 9 WZW 1028,6 - 0,0
15.02.2019 20:00:00 10,9 9,5 8 4 16 8 W 1028,8 - 0,0
15.02.2019 19:00:00 10,7 9,0 7 4 12 6 W 1028,3 - 0,0
15.02.2019 18:00:00 11,0 8,6 11 6 23 12 NW 1028,3 - 0,0
15.02.2019 17:00:00 12,5 9,3 18 10 25 13 W 1027,8 - 0,0
15.02.2019 16:00:00 12,9 8,8 19 10 28 15 W 1027,9 25 0,0
15.02.2019 15:00:00 12,9 9,2 16 9 24 13 W 1028,6 - 0,0
15.02.2019 14:00:00 12,9 9,3 13 7 25 13 W 1029,2 - 0,0
15.02.2019 13:00:00 12,6 8,9 14 7 27 15 W 1029,9 25 0,0
15.02.2019 12:00:00 12,4 7,5 17 9 30 16 W 1030,5 - 0,0
15.02.2019 11:00:00 11,9 7,8 14 7 26 14 W 1030,4 - 0,0
15.02.2019 10:00:00 11,6 8,3 19 10 26 14 W 1030,6 - 0,0
15.02.2019 09:00:00 10,7 7,8 16 9 24 13 W 1030,7 - 0,0
15.02.2019 08:00:00 9,1 6,7 10 6 18 10 W 1030,9 - 0,0
15.02.2019 07:00:00 8,2 6,3 15 8 23 12 WNW 1030,8 18 0,0
15.02.2019 06:00:00 9,6 7,9 14 8 24 13 W 1030,7 - 0,0
15.02.2019 05:00:00 9,6 8,0 15 8 33 18 W 1030,9 - 0,0
15.02.2019 04:00:00 10,4 8,8 22 12 35 19 W 1031,0 18 0,0
15.02.2019 03:00:00 10,4 9,0 24 13 40 22 W 1031,2 - 0,0
15.02.2019 02:00:00 10,5 9,1 20 11 39 21 W 1031,2 - 0,0
15.02.2019 01:00:00 10,4 8,8 22 12 37 20 W 1031,6 18 0,0
15.02.2019 00:00:00 9,9 8,0 14 7 22 12 W 1032,0 - 0,0
14.02.2019 23:00:00 9,8 7,9 13 7 25 14 W 1032,2 - 0,0
14.02.2019 22:00:00 10,4 8,8 17 9 29 16 WNW 1031,9 - 0,0
14.02.2019 21:00:00 10,9 9,2 19 10 39 21 WNW 1032,0 - 0,0
14.02.2019 20:00:00 11,1 8,8 24 13 40 22 W 1031,8 - 0,0
14.02.2019 19:00:00 11,5 8,5 28 15 43 23 W 1032,1 - 0,0
14.02.2019 18:00:00 11,8 8,8 26 14 39 21 W 1032,1 - 0,0
14.02.2019 17:00:00 12,3 8,8 16 9 36 20 W 1032,0 - 0,0
14.02.2019 16:00:00 13,0 7,7 21 11 31 17 W 1032,5 25 0,0
14.02.2019 15:00:00 13,5 8,3 20 11 26 14 W 1032,9 - 0,0
14.02.2019 14:00:00 13,4 7,8 12 6 22 12 W 1033,4 - 0,0
14.02.2019 13:00:00 13,5 8,5 8 5 21 12 W 1033,9 25 0,0
14.02.2019 12:00:00 13,4 9,3 7 4 13 7 ZW 1034,7 - 0,0
14.02.2019 11:00:00 12,7 9,1 5 3 11 6 ZZW 1034,7 - 0,0
14.02.2019 10:00:00 12,2 9,4 8 5 16 8 WZW 1034,7 25 0,0
14.02.2019 09:00:00 11,5 9,2 8 4 12 6 WZW 1034,7 - 0,0
14.02.2019 08:00:00 10,5 8,6 9 5 18 10 WZW 1034,7 - 0,2
14.02.2019 07:00:00 9,9 8,3 9 5 17 9 ZW 1034,3 - 0,0
14.02.2019 06:00:00 9,5 7,9 7 4 13 7 ZZW 1034,2 - 0,0
14.02.2019 05:00:00 8,2 6,3 8 4 11 6 W 1034,2 - 0,0
14.02.2019 04:00:00 8,4 5,9 6 3 12 7 W 1034,7 - 0,0
14.02.2019 03:00:00 8,9 5,3 6 3 17 9 W 1034,9 - 0,0
14.02.2019 02:00:00 7,1 1,8 6 3 13 7 NNW 1035,1 - 0,0
14.02.2019 01:00:00 7,7 4,5 5 3 10 5 ONO 1035,3 - 0,0
14.02.2019 00:00:00 7,7 4,8 0 0 6 4 N 1035,1 - 0,0
13.02.2019 23:00:00 7,9 5,0 3 2 11 6 NO 1034,7 - 0,0
13.02.2019 22:00:00 8,4 5,5 4 2 11 6 NO 1035,0 16 0,0
13.02.2019 21:00:00 7,8 5,3 2 1 14 8 ZZO 1034,8 - 0,0
13.02.2019 20:00:00 8,2 5,0 10 5 18 10 NO 1034,4 - 0,0
13.02.2019 19:00:00 9,0 4,8 14 8 22 12 NO 1034,3 - 0,0
13.02.2019 18:00:00 9,8 4,8 16 9 22 12 ONO 1033,7 - 0,0
13.02.2019 17:00:00 12,4 5,3 13 7 27 15 ONO 1033,5 - 0,0
13.02.2019 16:00:00 13,8 5,7 16 8 24 13 ONO 1033,3 16 0,0
13.02.2019 15:00:00 14,7 6,3 14 8 24 13 ONO 1033,3 - 0,0
13.02.2019 14:00:00 14,8 6,4 16 8 29 15 O 1033,1 - 0,0
13.02.2019 13:00:00 15,3 6,8 16 9 25 14 O 1033,3 16 0,0
13.02.2019 12:00:00 15,0 5,5 7 4 19 10 NO 1033,7 - 0,0
13.02.2019 11:00:00 13,3 7,1 4 2 11 6 WZW 1033,8 - 0,0
13.02.2019 10:00:00 12,9 5,6 3 2 10 5 NNW 1033,2 - 0,0
13.02.2019 09:00:00 11,3 8,2 6 3 9 5 WNW 1032,9 - 0,0
13.02.2019 08:00:00 8,8 7,1 6 4 15 8 NW 1032,4 - 0,0
13.02.2019 07:00:00 9,2 7,1 11 6 32 17 WNW 1031,4 - 0,0
13.02.2019 06:00:00 10,1 7,7 14 8 35 19 W 1030,6 - 0,0
13.02.2019 05:00:00 10,3 7,7 15 8 34 18 WNW 1030,0 - 0,0
13.02.2019 04:00:00 10,7 7,4 22 12 41 22 W 1029,4 16 0,0
13.02.2019 03:00:00 10,7 7,0 18 10 45 24 W 1029,4 - 0,0
13.02.2019 02:00:00 10,9 7,2 20 11 47 26 WNW 1029,1 - 0,0
13.02.2019 01:00:00 11,3 7,2 22 12 48 26 W 1029,0 - 0,0
13.02.2019 00:00:00 11,3 6,2 30 16 52 28 W 1028,5 - 0,0
12.02.2019 23:00:00 11,1 5,4 21 11 49 26 WNW 1028,3 - 0,0
12.02.2019 22:00:00 11,9 -5,6 31 17 53 29 WNW 1027,8 - 0,0
12.02.2019 21:00:00 10,7 4,8 26 14 48 26 WNW 1027,2 - 0,0
12.02.2019 20:00:00 11,2 5,7 34 18 59 32 W 1026,6 - 0,0
12.02.2019 19:00:00 11,4 5,7 36 19 56 30 W 1026,4 - 0,0
12.02.2019 18:00:00 11,5 5,1 34 19 55 30 W 1026,0 - 0,0
12.02.2019 17:00:00 12,3 4,3 32 18 51 27 W 1025,3 - 0,0
12.02.2019 16:00:00 12,8 4,7 19 11 44 24 WNW 1025,3 - 0,0
12.02.2019 15:00:00 13,4 6,3 28 15 51 28 W 1024,8 - 0,0
12.02.2019 14:00:00 13,9 3,6 30 16 44 24 W 1024,7 - 0,0
12.02.2019 13:00:00 12,7 0,7 14 8 31 17 W 1025,8 - 0,0
12.02.2019 12:00:00 13,1 -1,7 7 4 31 17 NW 1026,4 - 0,0
12.02.2019 11:00:00 13,6 1,2 18 10 29 16 W 1026,7 - 0,0
12.02.2019 10:00:00 13,0 3,4 13 7 22 12 WNW 1026,2 - 0,0
12.02.2019 09:00:00 11,1 5,0 8 4 18 10 NNW 1025,4 - 0,0
12.02.2019 08:00:00 8,1 4,3 10 6 16 9 N 1024,9 - 0,0
12.02.2019 07:00:00 6,7 3,3 11 6 23 12 N 1024,0 - 0,0
12.02.2019 06:00:00 7,0 1,9 13 7 19 10 NNO 1023,4 - 0,0
12.02.2019 05:00:00 9,4 3,6 11 6 21 11 ZO 1022,6 - 0,0
12.02.2019 04:00:00 7,6 4,5 14 8 19 10 OZO 1022,6 - 0,0
12.02.2019 03:00:00 8,8 3,8 3 2 13 7 Z 1022,2 - 0,0
12.02.2019 02:00:00 8,9 3,9 11 6 16 9 WNW 1021,9 - 0,0
12.02.2019 01:00:00 9,8 3,5 9 5 17 9 WZW 1021,3 - 0,0
12.02.2019 00:00:00 8,6 1,5 10 5 14 8 WNW 1020,9 - 0,0
11.02.2019 23:00:00 8,4 1,1 8 4 15 8 W 1020,2 - 0,0
11.02.2019 22:00:00 8,7 1,6 9 5 27 15 NNW 1019,7 - 0,0
11.02.2019 21:00:00 9,6 2,0 16 9 33 18 WNW 1018,9 - 0,0
11.02.2019 20:00:00 9,4 1,3 10 6 19 10 W 1018,1 - 0,0
11.02.2019 19:00:00 8,3 0,3 12 6 55 30 ONO 1017,8 - 0,0
11.02.2019 18:00:00 11,1 1,3 37 20 76 41 WNW 1016,5 - 0,0
11.02.2019 17:00:00 11,4 1,6 46 25 77 42 WNW 1016,1 - 0,0
11.02.2019 16:00:00 11,7 1,9 48 26 77 42 WNW 1015,8 - 0,0
11.02.2019 15:00:00 12,2 2,3 41 22 84 46 WNW 1015,4 - 0,0
11.02.2019 14:00:00 12,4 2,5 48 26 83 45 WNW 1015,1 - 0,0
11.02.2019 13:00:00 12,1 1,1 50 27 97 53 WNW 1015,5 - 0,0

tt = temperatuur
td = dauwpunt
ff = windsnelheid
fx = windstoten
dd = windrichting
ppp = luchtdruk
vv = zicht
rr = neerslag

Weerstations in de omgeving